www.pogodaiklimat.ru

Погода и климат >> Архив погоды >> Россия >> Нижегородская область >> Нижний Новгород


АРХИВ ПОГОДЫ в Нижнем Новгороде

Время (UTC), дата Ветер
(напр.,м/с)
 
Видим.   Явления Облачность Т
(С)
Тd
(С)
f
(%)
Тe
(С)
Тes
(С)
Комфортность P
(гПа)
Po
(гПа)
Тmin
(С)
Tmax
(С)
R
(мм)
R24
(мм)
S
(см)
12 16.08 СВ 1-3
{5}
10 км слаб. дождь 10/10 200 м
[Frnb]
+16.1 +15.9 99 +17 +17 прохладно 1014.0 995.5
15 16.08 СВ 1-3
{5}
10 км слаб. дождь 10/10 200 м
[Frnb]
+15.9 +15.8 99 +17 +17 по сезону 1014.1 995.6 +16.1 21
18 16.08 СВ 2-4
{4}
2000 м дымка {дождь} 10/10 200 м
[Frnb]
+15.5 +15.0 97 +15 +15 по сезону 1014.4 995.9
21 16.08 СВ 1-3
{5}
2000 м слаб. дождь {морось} 10/10 200 м
[Frnb]
+15.4 +15.1 98 +16 +16 по сезону 1014.6 996.1
00 17.08 СВ 2-3
{4}
2000 м слаб. дождь 10/10 200 м
[Frnb]
+15.3 +15.1 99 +15 +15 по сезону 1014.7 996.2
03 17.08 В 2-4
{6}
3000 м {дождь} 10/10 200 м
[Frnb]
+15.0 +14.7 98 +15 +15 по сезону 1014.6 995.9 +14.9 10
06 17.08 В 2-4
{4}
1000 м дымка {дождь} 10/10 200 м
[St]
+15.8 +15.5 98 +16 +16 по сезону 1015.0 996.5
09 17.08 СВ 2-5
{5}
4000 м 10/10 200 м
[St]
+17.0 +16.4 96 +17 +17 по сезону 1015.0 996.6
12 17.08 СВ 2-3
{5}
10 км 10/10 300 м
[St]
+17.9 +16.7 93 +18 +18 прохладно 1015.4 997.0
15 17.08 СВ 2-5
{5}
4000 м слаб. дождь 10/10 300 м
[Frnb Ns]
+17.3 +16.9 97 +18 +18 по сезону 1015.1 996.7 +17.9 2
18 17.08 В 2-5
{5}
4000 м слаб. дождь 10/10 200 м
[Frnb Ns]
+17.3 +17.1 99 +18 +18 тепло 1014.5 996.1
21 17.08 В 2 1000 м дымка {дождь} 10/10 100 м
[St]
+17.6 +17.4 99 +18 +18 тепло 1013.8 995.4
00 18.08 В 2-5
{6}
2000 м слаб. дождь {туман} 10/10 100 м
[Frnb Ns]
+17.9 +17.7 99 +18 +18 тепло 1013.7 995.3
03 18.08 В 3-8
{9}
4000 м дымка {дождь} 10/10 200 м
[Frnb]
+17.8 +17.1 96 +18 +18 тепло 1011.3 992.9 +17.3 5
06 18.08 В 3-7
{11}
10 км {дождь} 10/8 300 м
[Sc Ac As]
+18.7 +17.2 91 +20 +20 тепло 1011.4 993.0
09 18.08 В 2-6
{11}
10 км 9/5 600 м
[Cb cap Ci]
+22.4 +19.7 85 +28 +33 душно 1010.9 992.8
12 18.08 ЮВ 1-4
{8}
10 км 10/4 600 м
[Cb cap Ci]
+26.0 +19.7 68 +32 +36 очень
душно
1011.2 993.3
15 18.08 ЮВ 1-2
{6}
10 км 10/4 600 м
[Sc Cc]
+24.9 +20.3 76 +31 +31 очень
душно
1012.3 994.4 +26.6
18 18.08 штиль 0
{2}
10 км 4/0
[Ac trans]
+20.5 +19.5 94 +24 +24 комфорт 1013.6 995.4
21 18.08 З 1-2
{3}
10 км 8/8 600 м
[Sc]
+20.0 +19.2 95 +24 +24 комфорт 1014.2 995.9
00 19.08 Ю 1-2
{3}
10 км {гроза, ливн. осадки} 9/9 600 м
[Sc]
+19.1 +18.8 98 +22 +22 комфорт 1014.1 995.8
03 19.08 ЮВ 1-3
{3}
4000 м дымка {дождь} 9/5 600 м
[Sc Ac As]
+18.6 +18.4 99 +21 +21 комфорт 1014.4 996.0 +18.1 1
06 19.08 ЮВ 1-4
{5}
10 км слаб. дождь 10/10 300 м
[Frnb]
+19.8 +19.2 96 +24 +24 комфорт 1015.3 997.0
09 19.08 З 2-4
{5}
10 км {ливн. осадки} 9/9 600 м
[Cb cap]
+24.2 +18.4 70 +29 +30 душно 1015.2 997.2
12 19.08 З 3-6
{7}
10 км {ливн. осадки} 9/9 600 м
[Cb cap]
+23.2 +16.1 64 +28 +28 душно 1015.7 997.7
15 19.08 З 1-4
{6}
10 км 8/3 600 м
[Sc Ac trans]
+20.7 +15.0 70 +25 +25 комфорт 1017.4 999.0 +24.7 0.0
18 19.08 З 1-2
{4}
10 км 4/0
[Ac trans]
+18.7 +14.8 78 +21 +21 комфорт 1018.4 999.9
21 19.08 З 1-2
{3}
10 км 3/0
[Ac trans]
+15.6 +14.0 90 +16 +16 тепло 1019.1 1000.5
00 20.08 З 1-2
{3}
10 км 4/0
[Ac trans]
+15.3 +14.0 92 +16 +16 тепло 1019.8 1001.2
03 20.08 штиль 0
{2}
10 км 3/0
[Ci fib]
+15.4 +14.2 93 +15 +16 по сезону 1020.6 1002.0 +14.7
06 20.08 З 1-4
{4}
4000 м дымка ясно +19.0 +16.0 83 +21 +29 комфорт 1021.2 1002.8
09 20.08 СЗ 1-3
{5}
10 км 4/4 1000 м
[Cu hum]
+22.7 +20.0 85 +29 +37 очень
душно
1021.3 1003.1
12 20.08 З 1-2
{4}
10 км 4/4 1000 м
[Cu hum]
+24.4 +15.5 58 +27 +32 жарко 1021.1 1002.9
15 20.08 З 1-3
{4}
10 км 1/1 1500 м
[Sc diur, vesp]
+24.2 +15.6 59 +27 +28 жарко 1021.0 1002.8 +25.0
18 20.08 штиль 0
{3}
10 км 3/0
[Ci fib]
+18.8 +16.6 87 +20 +20 тепло 1022.1 1003.5
21 20.08 штиль 0 10 км ясно +16.5 +15.5 94 +16 +16 по сезону 1022.6 1003.9
00 21.08 штиль 0
{1}
10 км 3/0
[Ci fib]
+16.0 +15.0 94 +16 +16 тепло 1022.8 1004.1
03 21.08 штиль 0
{1}
10 км 1/0
[Ci fib]
+17.0 +15.7 92 +17 +18 тепло 1022.9 1004.3 +15.3
06 21.08 З 1-3
{3}
10 км 3/0
[Ac trans]
+22.1 +16.5 71 +26 +33 душно 1023.1 1004.8
09 21.08 З 1-3
{4}
10 км 8/6 1000 м
[Cu hum Ci fib]
+25.7 +19.9 70 +31 +36 очень
душно
1022.6 1004.5
12 21.08 С 1-6
{6}
10 км 10/6 600 м
[Cb cap Ci fib]
+26.2 +18.7 63 +31 +34 очень
душно
1022.6 1004.5
15 21.08 С 1-4
{6}
10 км 9/1 1000 м
[Cu hum Cs]
+23.9 +17.7 68 +28 +28 душно 1022.7 1004.5 +26.8
18 21.08 штиль 0
{4}
10 км 3/0
[Ci fib]
+19.5 +17.2 87 +22 +22 комфорт 1023.3 1004.8
21 21.08 штиль 0
{2}
10 км 3/0
[Ci]
+18.0 +16.9 93 +18 +18 тепло 1023.0 1004.4
00 22.08 штиль 0 10 км 1/0
[Ci fib]
+16.3 +15.2 93 +16 +16 тепло 1022.9 1004.2
03 22.08 штиль 0
{1}
10 км 1/0
[Ci fib]
+17.2 +16.0 93 +17 +18 тепло 1022.5 1003.9 +15.5
06 22.08 Ю 1-4
{4}
10 км 3/0
[Ci fib]
+22.7 +17.4 72 +28 +35 душно 1021.4 1003.1
09 22.08 ЮЗ 2-5
{5}
10 км 5/5 1000 м
[Cu hum]
+26.7 +18.7 62 +32 +37 очень
душно
1019.9 1002.0
12 22.08 ЮЗ 2-5
{7}
10 км 4/4 1000 м
[Cu med, cong]
+28.5 +17.7 52 +33 +37 очень
душно
1018.4 1000.5
15 22.08 ЮЗ 1-5
{6}
10 км 4/3 1000 м
[Cu med, cong Ac trans]
+26.7 +18.7 62 +32 +32 очень
душно
1017.6 999.7 +29.0
18 22.08 СЗ 3-9
{9}
4000 м гроза, ливневой дождь 10/8 300 м
[Cb cap Ac As]
+19.0 +18.1 95 +21 +21 комфорт 1020.7 1002.3
21 22.08 СЗ 1-2
{9}
10 км в посл. час гроза {ливн. осадки} 8/3 300 м
[Cb cap Ac trans]
+16.1 +15.1 94 +17 +17 тепло 1022.8 1004.1
00 23.08 СЗ 1-3
{4}
10 км {гроза, ливн. осадки} 8/0
[Ci]
+14.3 +13.4 94 +15 +15 тепло 1024.0 1005.2
03 23.08 З 1-2
{3}
4000 м дымка 9/6 300 м
[St Ci fib]
+13.1 +12.2 94 +13 +13 по сезону 1025.4 1006.5 +12.5 9
06 23.08 СЗ 1-3
{4}
10 км 1/1 300 м
[St]
+16.8 +13.0 78 +18 +24 тепло 1026.4 1007.6

 

Местоположение метеостанции Нижний Новгород (Нижегородская область, Россия): широта 56.27 долгота 44.00 высота над уровнем моря 157 м.

В архиве по умолчанию представлена погода в Нижнем Новгороде за последнюю неделю. Архивные данные за месяц целиком и за предыдущие месяцы, начиная с января 2011 года, Вы можете получить, выбрав интересующий диапазон дат из раскрывающегося списка и нажав кнопку "Ввод!".


*Определитесь, кто Вы:
робот инопланетянин человек

Внимание! Время в таблицах - всемирное. Для получения местного времени необходимо прибавить поправку, которая равна 3 ч.

Смотрите также архив погоды в соседних городах и на ближайших метеорологических станциях:

Погода в Нижнем Новгороде аэропорт (Нижегородская область, Россия) (15 км)
Погода в Дальнем Константиново (Нижегородская область, Россия) (53 км)
Погода в Балахне (Нижегородская область, Россия) (54 км)
Погода в Волжской ГМО (Нижегородская область, Россия) (57 км)
Погода в Семенове (Нижегородская область, Россия) (60 км)
Погода в Павлово (Нижегородская область, Россия) (70 км)
Погода в Лысково (Нижегородская область, Россия) (70 км)
Погода в Арзамасе (Нижегородская область, Россия) (101 км)
Погода в Воскресенском (Нижегородская область, Россия) (106 км)
Погода в Вязниках (Владимирская область, Россия) (113 км)

Пояснения к столбцам:

Ветер - указаны скорость ветра в м/с - средняя за 10 мин, порывы в срок и между сроками (в фигурных скобках) и направление, откуда дует ветер: С - северный, СВ - северо-восточный, В - восточный, ЮВ - юго-восточный, Ю - южный, ЮЗ - юго-западный, З - западный, СЗ - северо-западный.
Видимость - горизонтальная дальность видимости в метрах или километрах. При видимости от 1 до 10 км при отсутствии осадков обычно наблюдается дымка, при ухудшении видимости до 1 км и менее - туман. В сухую погоду видимость может ухудшаться дымом, пылью или мглою.
Явления - указаны атмосферные явления, наблюдавшиеся в срок или в последний час перед сроком; фигурными скобками обозначены явления, наблюдавшиеся между сроками (за 1-3 часа до срока); квадратными скобками обозначены град или гололедные отложения с указанием их диаметра в мм.
Облачность - указаны через наклонную черту общая и нижняя облачность в баллах и высота нижней границы облаков в метрах; квадратными скобками обозначены формы облаков: Ci - перистые, Cs - перисто-слоистые, Cc - перисто-кучевые, Ac - высококучевые, As - высокослоистые, Sc - слоисто-кучевые, Ns - слоисто-дождевые, Cu - кучевые, Cb - кучево-дождевые. Подробнее классификацию облаков см. в Атласе облаков (PDF).
T - Температура воздуха - температура, измеренная на высоте 2 м над землей.
Td - Температура точки росы - температура, при понижении до которой содержащийся в воздухе водяной пар достигнет насыщения.
f - Относительная влажность воздуха - влажноcть воздуха, измеренная на высоте 2 м над землей.
Te - Эффективная температура - температура, которую ощущает одетый по сезону человек в тени. Характеристика душности погоды. При расчете учитывается влияние влажности воздуха и скорости ветра на теплоощущения человека.
Tes - Эффективная температура на солнце - температура, которую ощущает человек, с поправкой на солнечный нагрев. Характеристика знойности погоды. Зависит от высоты солнца над горизонтом, облачности и скорости ветра. Ночью, в пасмурную погоду, а также при ветре 12 м/с и более поправка равна нулю.
P - Атмосферное давление - приведенное к уровню моря атмосферное давление.
Po - Атмосферное давление - измеренное на уровне метеостанции атмосферное давление.
Tmin - Минимальная температура - минимум температуры воздуха на высоте 2 м над землей.
Tmax - Максимальная температура - максимум температуры воздуха на высоте 2 м над землей.
R - Количество осадков - Количество выпавших осадков за период времени, мм. При наведении курсора мыши на число - период времени, за который выпало указанное количество осадков.
R24 - Количество осадков - Количество выпавших осадков за 24 часа, мм.
S - Снежный покров - Высота снежного покрова, см. При наведении курсора мыши на число - состояние снежного покрова и степень покрытия местности в баллах.